This is the latest recevied weather packets stored in our database for station/object NC4M. If no packets are shown the sender has not sent any weather packets the latest 10 day(s).
| Time | Temp. | Humidity | Pressure | Rain* | Wind** | Luminosity | Snow |
|---|---|---|---|---|---|---|---|
| 1777898112 | 16.11° C | 66% | 1008.8 hPa | 0 mm | - | 44 W/m² | - |
| 1777897809 | 15.56° C | 68% | 1008.8 hPa | 0 mm | - | 52 W/m² | - |
| 1777897504 | 15.56° C | 68% | 1008.9 hPa | 0 mm | - | 52 W/m² | - |
| 1777897200 | 15.56° C | 70% | 1008.9 hPa | 0 mm | - | 46 W/m² | - |
| 1777896896 | 15° C | 69% | 1008.8 hPa | 0 mm | - | 41 W/m² | - |
| 1777896594 | 15° C | 68% | 1008.7 hPa | 0 mm | - | 41 W/m² | - |
| 1777896290 | 15° C | 68% | 1008.7 hPa | 0 mm | - | 35 W/m² | - |
| 1777895989 | 15° C | 68% | 1008.9 hPa | 0 mm | - | 29 W/m² | - |
| 1777895686 | 15° C | 68% | 1008.9 hPa | 0 mm | - | 25 W/m² | - |
| 1777895383 | 15° C | 68% | 1008.8 hPa | 0 mm | - | 22 W/m² | - |
| 1777895081 | 14.44° C | 67% | 1009 hPa | 0 mm | - | 19 W/m² | - |
| 1777894778 | 14.44° C | 67% | 1008.8 hPa | 0 mm | - | 18 W/m² | - |
| 1777894474 | 14.44° C | 69% | 1008.9 hPa | 0 mm | - | 14 W/m² | - |
| 1777894172 | 14.44° C | 69% | 1008.8 hPa | 0 mm | - | 11 W/m² | - |
| 1777893869 | 14.44° C | 69% | 1008.6 hPa | 0 mm | - | 9 W/m² | - |
| 1777893565 | 14.44° C | 68% | 1008.7 hPa | 0 mm | - | 7 W/m² | - |
| 1777893262 | 14.44° C | 69% | 1008.7 hPa | 0 mm | - | 4 W/m² | - |
| 1777892958 | 13.89° C | 69% | 1008.8 hPa | 0 mm | - | 3 W/m² | - |
| 1777892655 | 13.89° C | 69% | 1008.7 hPa | 0 mm | - | 1 W/m² | - |
| 1777892350 | 13.89° C | 69% | 1008.9 hPa | 0 mm | - | 1 W/m² | - |
| 1777892047 | 13.89° C | 69% | 1008.9 hPa | 0 mm | - | 0 W/m² | - |
| 1777891745 | 13.89° C | 71% | 1008.8 hPa | 0 mm | - | 0 W/m² | - |
| 1777891440 | 13.89° C | 69% | 1008.7 hPa | 0 mm | - | 0 W/m² | - |
| 1777891136 | 13.89° C | 70% | 1008.7 hPa | 0 mm | - | 0 W/m² | - |
| 1777890832 | 13.89° C | 68% | 1009.1 hPa | 0 mm | - | 0 W/m² | - |
* Rain latest hour (hover to see other rain measurements)
** Current wind speed in m/s (hover to see current wind gust speed)